Weather Service Report


398 
ASUS44 KOUN 300700
RWROK 

WEATHER ROUNDUP FOR OKLAHOMA
NATIONAL WEATHER SERVICE NORMAN OK
200 AM CDT WED JUL 30 2014

NOTE: "FAIR" INDICATES FEW OR NO CLOUDS BELOW 12,000 FEET WITH NO
      SIGNIFICANT WEATHER AND/OR OBSTRUCTIONS TO VISIBILITY.

OKZ001>007-009>012-014-015-017-300800-
NORTHWEST OKLAHOMA AND THE PANHANDLE
  
CITY           SKY/WX    TMP DP  RH WIND       PRES   REMARKS
GAGE           MOCLDY    67  64  90 CALM      30.07F                  
$$

OKZ016-021>023-033>039-044-045-300800-
SOUTHWEST OKLAHOMA
  
CITY           SKY/WX    TMP DP  RH WIND       PRES   REMARKS
LAWTON/REGL    CLOUDY    72  67  84 CALM      30.06S                  
LAWTON/FT SILL CLOUDY    71  67  87 CALM      30.05S                  
FREDERICK      LGT RAIN  72  69  90 NE8       30.03S                  
CLINTON        LGT RAIN  70  65  84 S5        30.10S                  
HOBART         CLOUDY    70  67  90 CALM      30.07F                  
ALTUS AFB      DRIZZLE   71  71 100 SE7       30.05F                  
$$

OKZ018>020-024>031-300800-
CENTRAL OKLAHOMA
  
CITY           SKY/WX    TMP DP  RH WIND       PRES   REMARKS
OKLAHOMA CITY  LGT RAIN  72  66  81 E7        30.06F                  
OKC/WILEY POST LGT RAIN  75  63  66 SE5       30.06F                  
OKC/TINKER AFB LGT RAIN  72  66  83 S3        30.08F                  
STILLWATER     CLOUDY    73  68  84 E3        30.06F                  
GUTHRIE        CLOUDY    73  65  75 E5        30.06F                  
$$

OKZ008-013-054>072-300800-
NORTHEAST OKLAHOMA
  
CITY           SKY/WX    TMP DP  RH WIND       PRES   REMARKS
TULSA          CLOUDY    76  66  71 S5        30.04F                  
TULSA/JONES    CLOUDY    74  68  81 CALM      30.05F                  
PONCA CITY     CLOUDY    73  64  73 CALM      30.06F                  
BARTLESVILLE   MOCLDY    66  64  93 CALM      30.07F                  
MUSKOGEE       CLOUDY    73  67  81 S5        30.06S                  
$$

OKZ032-040>043-046>053-073>077-300800-
SOUTH CENTRAL/SOUTHEAST OKLAHOMA
  
CITY           SKY/WX    TMP DP  RH WIND       PRES   REMARKS
ARDMORE/DWNTWN CLOUDY    72  64  78 CALM      30.06S                  
MCALESTER      CLOUDY    76  66  71 CALM      30.06F                  
$$


Return to Home page


Western Regional Climate Center, wrcc@dri.edu